Simultaneous Nadir Overpasses (SNOs) Predictions

Prediction of SNOs between GOES-17 and AQUA Satellite Orbit:

Table of predicted SNOs for the next 14.0 days since TLE Epoch: 2/6/2021
Index Date Time (GOES-17) GOES-17 Lat,Lon AQUA Lat,Lon Distance(km) Time Diff (sec)
1 02/06/2021 10:57:41 -0.03,-137.22 0.61,-140.13 331.00 80
2 02/08/2021 10:42:50 -0.03,-137.20 -0.01,-137.17 4.06 80
3 02/10/2021 10:30:39 0.00,-137.18 -0.63,-134.21 337.37 80
4 02/10/2021 22:52:03 -0.01,-137.18 -0.48,-139.40 252.49 80
5 02/12/2021 22:42:32 -0.00,-137.15 0.15,-136.44 80.90 80
6 02/14/2021 22:30:21 -0.00,-137.13 0.78,-133.49 414.09 80
7 02/15/2021 10:51:37 0.00,-137.11 0.32,-138.64 174.07 80
8 02/17/2021 10:36:46 -0.00,-137.08 -0.31,-135.69 158.59 80
9 02/17/2021 22:58:09 -0.00,-137.07 -0.84,-140.87 431.74 80
10 02/19/2021 10:24:34 0.00,-137.04 -0.89,-132.72 490.64 80
11 02/19/2021 22:45:58 -0.00,-137.03 -0.19,-137.91 99.81 80
